FW0960 Weather Reports


Display with metric or nautical units.
time (UTC)temp
F
wind
direction
speed
MPH
gust
MPH
rain 1hr
in
rain 24hr
in
rain mn
in
humidity
%
barometer
mb
20260905230133 77 192 0.0 0.0 0.00 0.00 0.00 74 1011.2
20260905225130 77 192 0.0 0.0 0.00 0.00 0.00 74 1011.2
20260905224631 77 192 0.0 0.0 0.00 0.00 0.00 72 1011.1
20260905224140 77 192 0.0 0.0 0.00 0.00 0.00 73 1010.9
20260905222634 77 192 0.0 0.0 0.00 0.00 0.00 71 1010.9
20260905222137 78 192 0.0 0.0 0.00 0.00 0.00 71 1011.1
20260905221634 78 192 0.0 0.0 0.00 0.00 0.00 71 1011.1
20260905221132 78 192 0.0 0.0 0.00 0.00 0.00 70 1011.0
20260905220637 78 192 0.0 0.0 0.00 0.00 0.00 70 1011.1
20260905220138 78 192 0.0 0.0 0.00 0.00 0.00 71 1011.0
20260905215627 78 192 0.0 0.0 0.00 0.00 0.00 69 1011.0
20260905215131 78 193 0.0 0.0 0.00 0.00 0.00 70 1011.0
20260905214713 78 193 0.0 0.0 0.00 0.00 0.00 70 1011.0
20260905213623 78 189 0.0 0.0 0.00 0.00 0.00 71 1010.8
20260905212617 78 192 0.0 0.0 0.00 0.00 0.00 72 1010.8
20260905212117 78 192 0.0 0.0 0.00 0.00 0.00 71 1010.7
20260905211615 78 191 0.0 0.0 0.00 0.00 0.00 70 1010.5
20260905211111 78 190 0.0 0.0 0.00 0.00 0.00 74 1010.4
20260905210108 78 190 0.0 0.0 0.00 0.00 0.00 72 1010.2
20260905205105 78 195 0.0 0.0 0.00 0.00 0.00 74 1010.1
20260905204607 78 198 0.0 0.0 0.00 0.00 0.00 73 1010.1
20260905204106 78 196 0.0 0.0 0.00 0.00 0.00 74 1010.1
20260905203601 78 196 0.0 0.0 0.00 0.00 0.00 72 1010.1
20260905202559 78 196 0.0 0.0 0.00 0.00 0.00 74 1010.0
20260905202129 78 196 0.0 0.0 0.00 0.00 0.00 73 1010.3
20260905201555 78 196 0.0 0.0 0.00 0.00 0.00 72 1010.3
20260905201052 78 196 0.0 0.0 0.00 0.00 0.00 72 1010.3
20260905200558 79 199 0.0 0.0 0.00 0.00 0.00 71 1010.4
20260905200046 79 199 0.0 0.0 0.00 0.00 0.00 74 1010.4
20260905195547 79 201 0.0 0.0 0.00 0.00 0.00 73 1010.2
20260905195048 79 190 0.0 0.0 0.00 0.00 0.00 72 1010.4
20260905194043 79 198 0.0 0.0 0.00 0.00 0.00 72 1010.6
20260905193538 78 198 0.0 0.0 0.00 0.00 0.00 72 1010.9
20260905192537 78 198 0.0 0.0 0.00 0.00 0.00 74 1011.0
20260905191540 78 198 0.0 0.0 0.00 0.00 0.00 73 1011.1
20260905191036 78 198 0.0 0.0 0.00 0.00 0.00 73 1011.1
20260905190534 78 199 0.0 0.0 0.00 0.00 0.00 73 1011.0
20260905190036 79 199 0.0 0.0 0.00 0.00 0.00 73 1011.0
20260905185532 79 200 0.0 0.0 0.00 0.00 0.00 71 1011.0
20260905185032 79 200 0.0 0.0 0.00 0.00 0.00 72 1011.0
20260905184533 79 200 0.0 0.0 0.00 0.00 0.00 69 1011.1
20260905184031 79 200 0.0 0.0 0.00 0.00 0.00 71 1011.4
20260905183534 79 201 0.0 0.0 0.00 0.00 0.00 67 1011.4
20260905183032 78 202 0.0 0.0 0.00 0.00 0.00 68 1011.6
20260905182102 78 202 0.0 0.0 0.00 0.00 0.00 75 1011.6
20260905181522 78 203 0.0 0.0 0.00 0.00 0.00 72 1011.6
20260905180022 78 192 0.0 0.0 0.00 0.00 0.00 75 1011.6
20260905175516 78 192 0.0 0.0 0.00 0.00 0.00 77 1011.5
20260905174516 77 194 0.0 0.0 0.00 0.00 0.00 75 1011.8
20260905174015 77 196 0.0 0.0 0.00 0.00 0.00 75 1011.5
20260905173514 77 196 0.0 0.0 0.00 0.00 0.00 73 1011.6
20260905171506 78 195 0.0 0.0 0.00 0.00 0.00 75 1011.6
20260905170013 77 193 0.0 0.0 0.00 0.00 0.00 76 1011.7
20260905165505 77 192 0.0 0.0 0.00 0.00 0.00 76 1011.8
20260905164503 77 192 0.0 0.0 0.00 0.00 0.00 75 1011.8
20260905164009 77 192 0.0 0.0 0.00 0.00 0.00 74 1011.8
20260905162959 77 193 0.0 0.0 0.00 0.00 0.00 76 1012.1
20260905162453 77 197 0.0 0.0 0.00 0.00 0.00 73 1012.0
20260905161940 77 198 0.0 0.0 0.00 0.00 0.00 75 1011.9
20260905161434 77 196 0.0 0.0 0.00 0.00 0.00 74 1012.1
20260905160931 77 197 0.0 0.0 0.00 0.00 0.00 75 1012.2
20260905160432 77 202 0.0 0.0 0.00 0.00 0.00 76 1012.1
20260905155939 77 198 0.0 0.0 0.00 0.00 0.00 75 1012.2
20260905154940 77 192 0.0 0.0 0.00 0.00 0.00 76 1012.3
20260905153934 77 195 0.0 0.0 0.00 0.00 0.00 76 1012.3
20260905153431 76 192 0.0 0.0 0.00 0.00 0.00 77 1012.3
20260905152932 76 189 0.0 0.0 0.00 0.00 0.00 76 1012.5
20260905150931 76 195 0.0 0.0 0.00 0.00 0.00 76 1012.2
20260905150432 76 194 0.0 0.0 0.00 0.00 0.00 75 1012.4
20260905145439 76 196 0.0 0.0 0.00 0.00 0.00 77 1012.3
20260905144936 76 196 0.0 0.0 0.00 0.00 0.00 77 1012.3
20260905144431 76 194 0.0 0.0 0.00 0.00 0.00 77 1012.3
20260905143932 76 192 0.0 0.0 0.00 0.00 0.00 78 1012.3
20260905142930 76 192 0.0 0.0 0.00 0.00 0.00 79 1012.2
20260905142431 77 191 0.0 0.0 0.00 0.00 0.00 78 1012.1
20260905141435 77 193 0.0 0.0 0.00 0.00 0.00 76 1012.1
20260905140930 77 198 0.0 0.0 0.00 0.00 0.00 76 1011.8
20260905140432 77 198 0.0 0.0 0.00 0.00 0.00 75 1011.8
20260905135430 77 184 0.0 0.0 0.00 0.00 0.00 76 1011.7
20260905134933 77 184 0.0 0.0 0.00 0.00 0.00 76 1011.6
20260905134430 77 184 0.0 0.0 0.00 0.00 0.00 78 1011.6
20260905133937 77 184 0.0 0.0 0.00 0.00 0.00 78 1011.6
20260905133434 77 184 0.0 0.0 0.00 0.00 0.00 77 1011.5
20260905132935 76 184 0.0 0.0 0.00 0.00 0.00 79 1011.4
20260905132432 76 184 0.0 0.0 0.00 0.00 0.00 77 1011.4
20260905131929 76 184 0.0 0.0 0.00 0.00 0.00 77 1011.4
20260905131431 76 184 0.0 0.0 0.00 0.00 0.00 78 1011.3
20260905130930 76 184 0.0 0.0 0.00 0.00 0.00 77 1011.4
20260905130431 76 184 0.0 0.0 0.00 0.00 0.00 74 1011.2
20260905125430 76 184 0.0 0.0 0.00 0.00 0.00 79 1011.4
20260905124932 76 184 0.0 0.0 0.00 0.00 0.00 78 1011.4
20260905124432 76 184 0.0 0.0 0.00 0.00 0.00 78 1011.4
20260905123431 76 184 0.0 0.0 0.00 0.00 0.00 85 1011.5
20260905122933 76 184 0.0 0.0 0.00 0.00 0.00 85 1011.6
20260905122431 75 184 0.0 0.0 0.00 0.00 0.00 85 1011.6
20260905121454 75 183 0.0 0.0 0.00 0.00 0.00 87 1011.5
20260905120932 75 148 0.0 0.0 0.00 0.00 0.00 89 1011.3
20260905120434 75 148 0.0 0.0 0.00 0.00 0.00 91 1011.2
20260905115932 75 148 0.0 0.0 0.00 0.00 0.00 93 1011.1
20260905115431 74 148 0.0 0.0 0.00 0.00 0.00 94 1011.1
20260905114935 74 148 0.0 0.0 0.00 0.00 0.00 96 1010.9
20260905114436 74 148 0.0 0.0 0.00 0.00 0.00 96 1011.0
20260905113441 74 148 0.0 0.0 0.00 0.00 0.00 97 1010.9
20260905112434 73 148 0.0 0.0 0.00 0.00 0.00 98 1010.9
20260905111433 73 148 0.0 0.0 0.00 0.00 0.00 98 1010.8
20260905110430 73 148 0.0 0.0 0.00 0.00 0.00 98 1010.8
20260905105929 73 148 0.0 0.0 0.00 0.00 0.00 98 1010.7
20260905105432 73 148 0.0 0.0 0.00 0.00 0.00 98 1010.5
20260905104937 73 148 0.0 0.0 0.00 0.00 0.00 98 1010.4
20260905104023 73 148 0.0 0.0 0.00 0.00 0.00 98 1010.3
20260905102932 73 148 0.0 0.0 0.00 0.00 0.00 98 1010.3
20260905102430 73 148 0.0 0.0 0.00 0.01 0.00 98 1010.1
20260905101929 73 148 0.0 0.0 0.00 0.01 0.00 97 1010.0
20260905101432 73 148 0.0 0.0 0.00 0.01 0.00 97 1010.0
20260905100934 73 148 0.0 0.0 0.00 0.01 0.00 97 1009.9
20260905100430 73 148 0.0 0.0 0.00 0.01 0.00 97 1009.9
20260905095430 73 148 0.0 0.0 0.00 0.01 0.00 97 1009.9
20260905094926 73 148 0.0 0.0 0.00 0.01 0.00 97 1009.9
20260905094442 73 148 0.0 0.0 0.00 0.01 0.00 97 1009.9
20260905093920 74 148 0.0 0.0 0.00 0.01 0.00 96 1010.0
20260905093440 74 148 0.0 0.0 0.00 0.01 0.00 96 1010.1
20260905092413 74 148 0.0 0.0 0.00 0.01 0.00 96 1010.0
20260905091910 74 148 0.0 0.0 0.00 0.01 0.00 96 1009.9
20260905091417 74 148 0.0 0.0 0.00 0.01 0.00 95 1010.0
20260905090910 74 148 0.0 0.0 0.00 0.01 0.00 95 1010.0
20260905090410 74 148 0.0 0.0 0.00 0.01 0.00 95 1010.1
20260905085909 74 148 0.0 0.0 0.00 0.01 0.00 95 1010.1
20260905085410 74 148 0.0 0.0 0.00 0.01 0.00 95 1009.9
20260905084904 74 148 0.0 0.0 0.00 0.01 0.00 95 1010.1
20260905084408 74 148 0.0 0.0 0.00 0.01 0.00 95 1010.2
20260905083902 74 148 0.0 0.0 0.00 0.01 0.00 95 1010.0
20260905083402 74 148 0.0 0.0 0.00 0.01 0.00 95 1010.0
20260905082401 75 148 0.0 0.0 0.00 0.02 0.00 94 1010.0
20260905080839 75 148 0.0 0.0 0.00 0.02 0.00 94 1010.1
20260905080333 75 148 0.0 0.0 0.00 0.02 0.00 94 1010.2
20260905075837 75 148 0.0 0.0 0.00 0.02 0.00 94 1010.2
20260905075335 75 148 0.0 0.0 0.00 0.02 0.00 94 1010.2
20260905074835 75 148 0.0 0.0 0.00 0.03 0.00 94 1010.1
20260905073331 75 148 0.0 0.0 0.00 0.04 0.00 93 1009.9
20260905072840 76 148 0.0 0.0 0.00 0.04 0.00 93 1010.0
20260905072342 76 148 0.0 0.0 0.00 0.05 0.00 93 1010.1
20260905071333 76 148 0.0 0.0 0.00 0.07 0.00 93 1010.2
20260905070831 76 148 0.0 0.0 0.00 0.08 0.00 93 1010.5
20260905070333 77 148 0.0 0.0 0.00 0.10 0.00 93 1010.5
20260905065337 77 148 0.0 0.0 0.00 0.13 0.00 92 1010.6
20260905064839 77 148 0.0 0.0 0.00 0.14 0.00 92 1010.6
20260905063835 78 148 0.0 0.0 0.00 0.15 0.00 92 1010.5
20260905063331 78 148 0.0 0.0 0.00 0.16 0.00 92 1010.6
20260905062831 78 148 0.0 0.0 0.00 0.16 0.00 91 1010.6
20260905061830 78 148 0.0 0.0 0.00 0.19 0.00 90 1010.7
20260905061329 78 148 0.0 0.0 0.00 0.20 0.00 90 1010.7
20260905060825 78 148 0.0 0.0 0.00 0.22 0.00 90 1010.6
20260905055820 78 148 0.0 0.0 0.00 0.32 0.00 90 1010.7
20260905055323 78 148 0.0 0.0 0.00 0.55 0.00 90 1010.5
20260905054821 78 148 0.0 0.0 0.00 0.63 0.00 91 1010.5
20260905054318 78 148 0.0 0.0 0.00 0.63 0.00 91 1010.4
20260905053818 78 148 0.0 0.0 0.00 0.63 0.00 90 1010.5
20260905053313 78 148 0.0 0.0 0.00 0.63 0.00 91 1010.7
20260905052815 78 148 0.0 0.0 0.00 0.63 0.00 91 1010.7
20260905052329 78 148 0.0 0.0 0.00 0.63 0.00 91 1010.8
20260905051310 78 144 0.0 0.0 0.00 0.63 0.00 91 1010.9
20260905050305 78 145 0.0 0.0 0.00 0.63 0.00 91 1011.0
20260905045806 78 144 0.0 0.0 0.00 0.63 0.00 91 1011.1
20260905044800 78 144 0.0 0.0 0.00 0.63 0.00 90 1011.3
20260905044255 78 144 0.0 0.0 0.00 0.63 0.00 90 1011.3
20260905043751 78 144 0.0 0.0 0.00 0.63 0.00 90 1011.4
20260905043242 78 144 0.0 0.0 0.00 0.63 0.00 89 1011.5
20260905042233 78 144 0.0 0.0 0.00 0.63 0.00 89 1011.4
20260905041743 78 145 0.0 0.0 0.00 0.63 0.00 89 1011.5
20260905041233 78 144 0.0 0.0 0.00 0.63 0.00 89 1011.5
20260905040735 78 144 0.0 0.0 0.00 0.63 0.00 89 1011.4
20260905040238 78 144 0.0 0.0 0.00 0.63 0.00 89 1011.4
20260905035738 78 145 0.0 0.0 0.00 0.63 0.63 88 1011.4
20260905035233 78 144 0.0 0.0 0.00 0.63 0.63 88 1011.3
20260905034731 78 144 0.0 1.0 0.00 0.63 0.63 87 1011.4
20260905034232 78 145 0.0 1.0 0.00 0.63 0.63 87 1011.3
20260905033730 78 145 0.0 0.0 0.00 0.63 0.63 87 1011.4
20260905033231 78 145 0.0 0.0 0.00 0.63 0.63 88 1011.5
20260905032732 78 145 0.0 0.0 0.00 0.63 0.63 88 1011.6
20260905031731 78 144 0.0 0.0 0.00 0.63 0.63 89 1011.7
20260905031231 78 145 0.0 0.0 0.00 0.63 0.63 89 1011.7
20260905030732 78 144 0.0 0.0 0.00 0.63 0.63 90 1011.8
20260905030232 78 145 0.0 0.0 0.00 0.63 0.63 90 1012.0
20260905025730 78 144 0.0 0.0 0.00 0.63 0.63 90 1011.9
20260905025232 78 145 0.0 0.0 0.00 0.63 0.63 89 1011.9
20260905024736 78 144 0.0 0.0 0.00 0.63 0.63 89 1012.1
20260905023835 78 145 0.0 0.0 0.00 0.63 0.63 90 1011.9
20260905022732 78 144 0.0 0.0 0.00 0.63 0.63 91 1012.0
20260905022233 78 144 0.0 0.0 0.00 0.63 0.63 90 1011.9
20260905021731 78 144 0.0 0.0 0.00 0.63 0.63 89 1011.8
20260905021231 78 144 0.0 0.0 0.00 0.63 0.63 89 1012.0
20260905020736 78 144 0.0 0.0 0.00 0.63 0.63 89 1012.0
20260905020229 78 145 0.0 0.0 0.00 0.63 0.63 90 1011.9
20260905015731 78 144 0.0 0.0 0.00 0.63 0.63 90 1012.0
20260905014734 78 144 0.0 0.0 0.00 0.63 0.63 91 1012.1
20260905014232 78 144 0.0 0.0 0.00 0.63 0.63 90 1012.0
20260905013732 78 144 0.0 0.0 0.00 0.63 0.63 89 1012.0
20260905013232 78 144 0.0 0.0 0.00 0.63 0.63 88 1012.0
20260905012731 78 144 0.0 0.0 0.00 0.63 0.63 88 1012.1
20260905012235 78 144 0.0 0.0 0.00 0.63 0.63 88 1012.0
20260905011737 78 144 0.0 0.0 0.00 0.63 0.63 88 1012.0
20260905011238 79 144 0.0 0.0 0.00 0.63 0.63 88 1012.1
20260905010218 79 144 0.0 0.0 0.00 0.63 0.63 88 1012.1
20260905005220 79 145 0.0 0.0 0.00 0.63 0.63 87 1012.1
20260905004215 79 144 0.0 0.0 0.00 0.63 0.63 87 1012.0
20260905003209 79 145 0.0 0.0 0.00 0.63 0.63 87 1011.9
20260905002710 79 145 0.0 0.0 0.00 0.63 0.63 85 1011.9
20260905002208 80 144 0.0 0.0 0.00 0.63 0.63 85 1011.9
20260905001707 80 145 0.0 0.0 0.00 0.63 0.63 84 1011.7
20260905001205 80 144 0.0 0.0 0.00 0.63 0.63 84 1011.6
20260905000703 80 145 0.0 0.0 0.00 0.63 0.63 85 1011.4
20260905000205 80 145 0.0 0.0 0.00 0.63 0.63 84 1011.4
20260904235706 80 145 0.0 0.0 0.00 0.63 0.63 83 1011.2
20260904235227 80 145 0.0 0.0 0.00 0.63 0.63 82 1011.1
20260904234203 81 145 0.0 0.0 0.00 0.63 0.63 82 1011.1
20260904233702 81 145 0.0 0.0 0.00 0.63 0.63 82 1011.2
20260904233203 81 145 0.0 0.0 0.00 0.63 0.63 81 1011.2
20260904232702 82 145 0.0 0.0 0.00 0.63 0.63 80 1011.3
20260904232153 82 144 0.0 0.0 0.00 0.63 0.63 80 1011.3
20260904231650 82 144 0.0 0.0 0.00 0.63 0.63 79 1011.4
20260904231140 82 145 0.0 0.0 0.00 0.63 0.63 79 1011.3
20260904230639 82 145 0.0 0.0 0.00 0.63 0.63 79 1011.7